GIA284 KLAX-RCTP

Flight info

Callsign GIA284
Flight time N/A
Altitude 30000
Route SUMMR2 MCKEY DCT LIBBO DCT BRINY DCT BOARS DCT AMAKR DCT REDWD DCT 42N130W 50N140W 53N150W/N0489F320 54N160W DCT RADIC DCT DRAPP DCT ONEIL DCT NIKLL/N0495F340 R220 NOGAL/N0485F350 R220 NANAC/N0489F340 R220 IXE/N0486F360 Y88 SWING Y121 LABEL Y50 HKC A1 DRAKE DRAKE1B
Aircraft B77W/H-SDE1E2E3FGHIJ2J3J4J5M1RWXY/LB1D1

Departure

Time 2026-05-06 22:42
Airport Los Angeles International Airport (KLAX)

Arrival

Time N/A
Airport Taiwan Taoyuan International Airport (RCTP)
Time Latitude Longitude Altitude Speed Heading
2026-05-06 22:21 33.94522 -118.41159 130 ft 0 kts 90°
2026-05-06 22:34 33.94521 -118.41173 125 ft 2 kts 86°
2026-05-06 22:35 33.94520 -118.41193 127 ft 2 kts 82°
2026-05-06 22:35 33.94517 -118.41212 125 ft 2 kts 74°
2026-05-06 22:35 33.94511 -118.41231 125 ft 2 kts 60°
2026-05-06 22:35 33.94501 -118.41246 125 ft 2 kts 32°
2026-05-06 22:36 33.94486 -118.41253 125 ft 2 kts
2026-05-06 22:36 33.94476 -118.41253 125 ft 1 kts 352°
2026-05-06 22:36 33.94475 -118.41253 125 ft 0 kts 352°
2026-05-06 22:38 33.94521 -118.41261 125 ft 15 kts 352°
2026-05-06 22:38 33.94626 -118.41277 128 ft 15 kts 353°
2026-05-06 22:38 33.94734 -118.41292 127 ft 15 kts 359°
2026-05-06 22:38 33.94800 -118.41208 127 ft 15 kts 75°
2026-05-06 22:39 33.94815 -118.41080 126 ft 15 kts 83°
2026-05-06 22:39 33.94829 -118.40953 127 ft 15 kts 83°
2026-05-06 22:39 33.94842 -118.40825 130 ft 15 kts 83°
2026-05-06 22:39 33.94855 -118.40697 130 ft 15 kts 83°
2026-05-06 22:40 33.94868 -118.40569 130 ft 15 kts 83°
2026-05-06 22:40 33.94882 -118.40441 127 ft 15 kts 83°
2026-05-06 22:40 33.94895 -118.40308 129 ft 18 kts 83°
2026-05-06 22:40 33.94913 -118.40136 128 ft 23 kts 83°
2026-05-06 22:41 33.95036 -118.39983 126 ft 13 kts 277°
2026-05-06 22:41 33.95035 -118.40014 126 ft 5 kts 265°
2026-05-06 22:41 33.95002 -118.40346 127 ft 79 kts 263°
2026-05-06 22:42 33.94902 -118.41317 127 ft 153 kts 263°
2026-05-06 22:42 33.94746 -118.42847 219 ft 205 kts 263°
2026-05-06 22:42 33.94604 -118.44538 1254 ft 194 kts 262°
2026-05-06 22:42 33.94443 -118.46136 2092 ft 185 kts 261°
2026-05-06 22:43 33.94299 -118.47608 2609 ft 171 kts 268°
2026-05-06 22:43 33.94255 -118.49108 2649 ft 192 kts 269°
2026-05-06 22:43 33.94220 -118.50800 2610 ft 211 kts 268°
2026-05-06 22:43 33.94111 -118.52609 2822 ft 220 kts 265°
2026-05-06 22:44 33.93958 -118.54472 3141 ft 227 kts 265°
2026-05-06 22:44 33.93801 -118.56398 3436 ft 235 kts 265°
2026-05-06 22:44 33.93642 -118.58389 3752 ft 243 kts 266°
2026-05-06 22:44 33.93478 -118.60452 4108 ft 252 kts 266°
2026-05-06 22:45 33.93311 -118.62577 4530 ft 259 kts 267°
2026-05-06 22:45 33.93142 -118.64721 4948 ft 263 kts 266°
2026-05-06 22:45 33.92969 -118.66956 4981 ft 272 kts 266°
2026-05-06 22:45 33.92793 -118.69217 4994 ft 271 kts 267°
2026-05-06 22:46 33.92617 -118.71468 5028 ft 269 kts 266°
2026-05-06 22:46 33.92442 -118.73717 5441 ft 271 kts 267°
2026-05-06 22:46 33.92263 -118.76038 5737 ft 285 kts 266°
2026-05-06 22:46 33.92076 -118.78433 6230 ft 290 kts 266°
2026-05-06 22:47 33.91885 -118.80872 6724 ft 295 kts 266°
2026-05-06 22:47 33.91693 -118.83353 7242 ft 300 kts 268°
2026-05-06 22:47 33.91667 -118.85873 7738 ft 303 kts 275°
2026-05-06 22:47 33.91777 -118.88422 8300 ft 306 kts 276°
2026-05-06 22:48 33.91896 -118.90991 8848 ft 309 kts 275°
2026-05-06 22:48 33.91996 -118.93594 9396 ft 313 kts 275°
2026-05-06 22:48 33.92081 -118.96222 9940 ft 316 kts 275°
2026-05-06 22:48 33.92134 -118.97984 10236 ft 321 kts 275°
2026-05-06 22:49 33.92248 -119.00733 10367 ft 334 kts 281°
2026-05-06 22:49 33.93006 -119.03384 10466 ft 340 kts 305°
2026-05-06 22:49 33.94317 -119.05821 10616 ft 355 kts 306°
2026-05-06 22:49 33.95691 -119.08380 10810 ft 371 kts 306°
2026-05-06 22:50 33.97089 -119.11046 11254 ft 380 kts 305°
2026-05-06 22:50 33.98498 -119.13771 11792 ft 386 kts 304°
2026-05-06 22:50 33.99919 -119.16529 12424 ft 389 kts 304°
2026-05-06 22:50 34.01490 -119.19152 12934 ft 386 kts 319°
2026-05-06 22:51 34.03606 -119.21106 13504 ft 383 kts 324°
2026-05-06 22:51 34.05821 -119.22907 14160 ft 385 kts 324°
2026-05-06 22:51 34.08028 -119.24738 14792 ft 387 kts 323°
2026-05-06 22:51 34.10247 -119.26609 15357 ft 390 kts 323°
2026-05-06 22:52 34.12476 -119.28507 15900 ft 394 kts 323°
2026-05-06 22:52 34.14720 -119.30429 16449 ft 397 kts 323°
2026-05-06 22:52 34.16981 -119.32375 17002 ft 401 kts 323°
2026-05-06 22:52 34.19254 -119.34334 17536 ft 404 kts 323°
2026-05-06 22:53 34.21552 -119.36318 18056 ft 407 kts 323°
2026-05-06 22:53 34.23865 -119.38318 18348 ft 411 kts 328°
2026-05-06 22:53 34.26206 -119.40339 18774 ft 415 kts 327°
2026-05-06 22:53 34.28563 -119.42374 19236 ft 418 kts 327°
2026-05-06 22:54 34.30930 -119.44421 19715 ft 420 kts 327°
2026-05-06 22:54 34.33314 -119.46486 20185 ft 422 kts 327°
2026-05-06 22:54 34.35711 -119.48564 20636 ft 425 kts 327°
2026-05-06 22:54 34.38119 -119.50651 21072 ft 428 kts 327°
2026-05-06 22:55 34.40515 -119.52736 21521 ft 431 kts 326°
2026-05-06 22:55 34.42767 -119.55157 21915 ft 438 kts 315°
2026-05-06 22:55 34.44776 -119.57953 22311 ft 443 kts 313°
2026-05-06 22:55 34.46751 -119.60859 22673 ft 447 kts 312°
2026-05-06 22:56 34.48720 -119.63789 23091 ft 449 kts 312°
2026-05-06 22:56 34.50701 -119.66717 23607 ft 450 kts 313°
2026-05-06 22:56 34.52710 -119.69646 23984 ft 452 kts 313°
2026-05-06 22:56 34.54738 -119.72570 24326 ft 455 kts 313°
2026-05-06 22:57 34.56794 -119.75512 24683 ft 458 kts 314°
2026-05-06 22:57 34.58855 -119.78451 25060 ft 459 kts 314°
2026-05-06 22:57 34.60930 -119.81407 25430 ft 460 kts 314°
2026-05-06 22:57 34.63008 -119.84368 25761 ft 462 kts 314°
2026-05-06 22:58 34.65100 -119.87352 26087 ft 464 kts 314°
2026-05-06 22:58 34.67197 -119.90346 26433 ft 466 kts 314°
2026-05-06 22:58 34.69301 -119.93354 26756 ft 468 kts 313°
2026-05-06 22:58 34.71408 -119.96373 27109 ft 469 kts 314°
2026-05-06 22:59 34.73497 -119.99365 27429 ft 471 kts 313°
2026-05-06 22:59 34.75490 -120.02223 27724 ft 473 kts 313°
2026-05-06 22:59 34.77595 -120.05243 27966 ft 476 kts 313°
2026-05-06 22:59 34.79736 -120.08320 28253 ft 478 kts 313°
2026-05-06 23:00 34.81885 -120.11410 28569 ft 479 kts 313°
2026-05-06 23:00 34.84040 -120.14513 28877 ft 480 kts 313°
2026-05-06 23:00 34.86200 -120.17623 29152 ft 482 kts 313°
2026-05-06 23:00 34.88364 -120.20743 29405 ft 483 kts 313°
2026-05-06 23:01 34.90536 -120.23878 29639 ft 485 kts 313°
2026-05-06 23:01 34.92713 -120.27022 29935 ft 485 kts 313°
2026-05-06 23:01 34.94889 -120.30168 30083 ft 487 kts 313°
2026-05-06 23:02 34.99273 -120.36518 30100 ft 484 kts 313°
2026-05-06 23:02 35.03564 -120.42742 30113 ft 481 kts 313°
2026-05-06 23:03 35.07862 -120.48986 30116 ft 481 kts 313°
2026-05-06 23:03 35.11462 -120.54224 30107 ft 481 kts 313°
2026-05-06 23:04 35.11806 -120.54725 30098 ft 481 kts 313°
2026-05-06 23:04 35.14233 -120.58262 30100 ft 481 kts 313°
2026-05-06 23:05 35.18536 -120.64540 30108 ft 482 kts 313°
2026-05-06 23:05 35.22844 -120.70839 30106 ft 483 kts 313°
2026-05-06 23:06 35.27151 -120.77148 30103 ft 483 kts 313°
2026-05-06 23:06 35.31439 -120.83441 29787 ft 480 kts 312°
2026-05-06 23:06 35.33554 -120.86549 29361 ft 482 kts 312°
2026-05-06 23:07 35.35709 -120.89718 28895 ft 485 kts 312°
2026-05-06 23:07 35.37874 -120.92903 28460 ft 487 kts 312°
2026-05-06 23:07 35.40038 -120.96094 28187 ft 487 kts 312°
2026-05-06 23:07 35.42209 -120.99296 28300 ft 488 kts 312°
2026-05-06 23:08 35.44381 -121.02503 28570 ft 489 kts 312°
2026-05-06 23:08 35.46549 -121.05707 28989 ft 487 kts 312°
2026-05-06 23:08 35.48701 -121.08888 29405 ft 484 kts 312°
2026-05-06 23:08 35.50865 -121.12038 29781 ft 482 kts 313°
2026-05-06 23:09 35.53047 -121.15171 30059 ft 482 kts 313°
2026-05-06 23:09 35.57427 -121.21434 30127 ft 483 kts 313°
2026-05-06 23:10 35.61788 -121.27702 30122 ft 481 kts 313°
2026-05-06 23:10 35.66112 -121.33944 30133 ft 479 kts 313°
2026-05-06 23:11 35.70430 -121.40194 30134 ft 479 kts 312°
2026-05-06 23:11 35.74738 -121.46440 30134 ft 480 kts 312°
2026-05-06 23:12 35.79060 -121.52717 30139 ft 481 kts 312°
2026-05-06 23:12 35.83388 -121.59015 30140 ft 482 kts 312°
2026-05-06 23:13 35.87693 -121.65291 30141 ft 483 kts 312°
2026-05-06 23:13 35.92030 -121.71627 30145 ft 483 kts 312°
2026-05-06 23:14 35.96367 -121.77968 30146 ft 483 kts 313°
2026-05-06 23:14 36.01279 -121.83568 30148 ft 480 kts 325°
2026-05-06 23:15 36.06972 -121.87811 30154 ft 477 kts 334°
2026-05-06 23:15 36.12922 -121.91460 30151 ft 478 kts 335°
2026-05-06 23:16 36.18873 -121.95114 30162 ft 478 kts 334°
2026-05-06 23:16 36.24821 -121.98821 30165 ft 478 kts 334°
2026-05-06 23:17 36.30724 -122.02529 30170 ft 479 kts 334°
2026-05-06 23:17 36.36664 -122.06271 30173 ft 479 kts 334°
2026-05-06 23:18 36.42605 -122.10018 30174 ft 479 kts 334°